Regional Weather Roundup
Issued by NWS

Home | Current Version | Previous Version | Graphics & Text | Print | Product List | Glossary On
Versions: 1 2 3 4 5 6 7 8 9 10 11 12 13 14 15 16 17 18 19 20 21 22 23 24 25 26 27 28 29 30 31 32 33 34 35 36 37 38 39 40 41 42 43 44 45 46 47 48 49 50
447
ASUS43 KLMK 170410
RWRKY
KENTUCKY REGIONAL WEATHER ROUNDUP
NATIONAL WEATHER SERVICE LOUISVILLE KY
1100 PM EST TUE JAN 16 2018

NOTE "FAIR" INDICATES FEW OR NO CLOUDS BELOW 12,000 FEET
WITH NO SIGNIFICANT WEATHER AND/OR OBSTRUCTIONS TO VISIBILITY.

KYZ001>023-026-027-061>063-070>075-170500-
WESTERN AND SOUTH CENTRAL KENTUCKY

CITY           SKY/WX    TMP DP  RH WIND       PRES   REMARKS
PADUCAH        CLOUDY    10   1  67 NW3       30.68S
HENDERSON      FLURRIES   8   3  80 NW8       30.68S WCI  -4
OWENSBORO      FLURRIES   3   0  85 N3        30.67S
HOPKINSVILLE   FAIR       1  -4  80 CALM      30.65R
BOWLING GREEN  CLOUDY     6  -1  73 VRB5      30.65S WCI  -3
GLASGOW        CLOUDY     1  -2  87 CALM      30.62S
$$

KYZ024-025-028>034-038-045-046-053-170500-
NORTH CENTRAL KENTUCKY

CITY           SKY/WX    TMP DP  RH WIND       PRES   REMARKS
LOUISVILLE/SDF FLURRIES   8   0  69 NW8       30.63S WCI  -4
LOUISVILLE/LOU CLOUDY     7   1  76 NW7       30.63S WCI  -5
FORT KNOX      FLURRIES   5   0  78 CALM      30.59S
$$

KYZ035>037-039>044-047>052-055>060-089>105-170500-
NORTHEAST KENTUCKY

CITY           SKY/WX    TMP DP  RH WIND       PRES   REMARKS
LEXINGTON      CLOUDY     7   0  73 CALM      30.56R
COVINGTON      FLURRIES   8   4  83 W8        30.55S WCI  -4
FRANKFORT      CLOUDY     8  -1  66 NW6       30.57S WCI  -2
$$

KYZ054-064>069-076>088-106>120-170500-
SOUTHEAST KENTUCKY

CITY           SKY/WX    TMP DP  RH WIND       PRES   REMARKS
JACKSON        CLOUDY     7   3  84 W5        30.51R WCI  -2
LONDON         FAIR      -2  -7  79 NW3       30.53F
SOMERSET       FAIR       0  -4  85 N3        30.59F
MIDDLESBORO    CLOUDY    13   7  76 NW7       30.52R WCI   3
MONTICELLO     FAIR     -15 -19  82 VRB7      30.59F WCI -31
$$





USA.gov is the U.S. government's official web portal to all federal, state and local government web resources and services.